Weather History for KTIF - November, 2012

Change the Weather History Date:

Friday, November 16, 2012

  Actual Average (KLBF) Record (KLBF)
Temperature  
Mean Temperature 38 °F 35 °F  
Max Temperature 56 °F 50 °F 80 °F (1941)
Min Temperature 21 °F 21 °F -8 °F (1875)
Degree Days  
Heating Degree Days 26 30  
Month to date heating degree days 416  
Since 1 July heating degree days 1085  
Cooling Degree Days 0 0  
Month to date cooling degree days 0  
Year to date cooling degree days 768  
Moisture  
Dew Point 26 °F    
Average Humidity 61    
Maximum Humidity 92    
Minimum Humidity 27    
Precipitation  
Precipitation 0.00 in 0.02 in 0.59 in (1991)
Month to date precipitation 0.40  
Year to date precipitation 19.58  
Snow  
Snow 0.00 in 0.10 in 8.90 in (1886)
Month to date snowfall 1.9  
Since 1 July snowfall 4.2  
Since 1 September snowfall 4.2  
Snow Depth -    
Sea Level Pressure  
Sea Level Pressure 30.23 in    
Wind  
Wind Speed 9 mph (South)    
Max Wind Speed 25 mph    
Max Gust Speed 31 mph    
Visibility 10 miles    
Events      
T = Trace of Precipitation, MM = Missing Value Source: NWS Daily Summary

Daily Weather History Graph

Daily Weather History Graph

Search for Another Location

Airport or City:

Trip Planner

Search our weather history database for the weather conditions in past years. The results will help you decide how hot, cold, wet, or windy it might be!

Date:

Astronomy

Nov. 16, 2012 Rise Set
Actual Time 7:33 AM CST 5:19 PM CST
Civil Twilight 7:03 AM CST 5:50 PM CST
Nautical Twilight 6:29 AM CST 6:23 PM CST
Astronomical Twilight 5:56 AM CST 6:56 PM CST
Moon 10:30 AM CST (11/16) 8:21 PM CST (11/16)
Length of Visible Light 10h 46m
Length of Day
9h 45m
Waxing Crescent, 12% of the Moon is Illuminated
Nov 16
Waxing Crescent
Nov 20
First Quarter
Nov 28
Full
Dec 6
Last Quarter
Dec 13
New

Hourly Weather History & Observations

Time (CST) Temp. Windchill Dew Point Humidity Pressure Visibility Wind Dir Wind Speed Gust Speed Precip Events Conditions
12:15 AM 24.8 °F - 19.9 °F 82% 30.40 in 10.0 mi Calm Calm - N/A   Clear
12:35 AM 23.9 °F - 20.7 °F 87% 30.39 in 10.0 mi Calm Calm - N/A   Clear
12:55 AM 25.3 °F - 22.3 °F 88% 30.39 in 10.0 mi Calm Calm - N/A   Clear
1:15 AM 23.5 °F - 20.3 °F 87% 30.39 in 10.0 mi Calm Calm - N/A   Clear
1:35 AM 22.1 °F - 19.2 °F 89% 30.38 in 10.0 mi Calm Calm - N/A   Clear
1:55 AM 21.9 °F 17.2 °F 19.4 °F 90% 30.37 in 10.0 mi ESE 3.5 mph - N/A   Clear
2:15 AM 21.9 °F - 19.4 °F 90% 30.36 in 10.0 mi Calm Calm - N/A   Clear
2:35 AM 21.4 °F 16.6 °F 19.2 °F 91% 30.36 in 10.0 mi SE 3.5 mph - N/A   Clear
2:55 AM 21.2 °F 16.4 °F 19.0 °F 91% 30.35 in 10.0 mi SE 3.5 mph - N/A   Clear
3:15 AM 26.2 °F 20.7 °F 24.3 °F 92% 30.35 in 10.0 mi South 4.6 mph - N/A   Clear
3:35 AM 27.1 °F 21.8 °F 23.9 °F 88% 30.35 in 10.0 mi SSE 4.6 mph - N/A   Clear
3:55 AM 28.0 °F 24.2 °F 24.6 °F 87% 30.34 in 10.0 mi SSE 3.5 mph - N/A   Clear
4:15 AM 23.5 °F 19.1 °F 20.7 °F 89% 30.33 in 10.0 mi SSE 3.5 mph - N/A   Clear
4:35 AM 24.4 °F 18.6 °F 22.3 °F 91% 30.33 in 10.0 mi South 4.6 mph - N/A   Clear
4:55 AM 29.1 °F 20.6 °F 25.5 °F 86% 30.33 in 10.0 mi South 9.2 mph - N/A   Clear
5:15 AM 30.0 °F 20.5 °F 25.7 °F 84% 30.32 in 10.0 mi South 11.5 mph - N/A   Clear
5:35 AM 29.8 °F 20.9 °F 25.7 °F 85% 30.33 in 10.0 mi South 10.4 mph - N/A   Clear
6:15 AM 31.1 °F 21.4 °F 26.2 °F 82% 30.31 in 10.0 mi South 12.7 mph - N/A   Clear
6:35 AM 30.6 °F 21.8 °F 25.7 °F 82% 30.31 in 10.0 mi South 10.4 mph 16.1 mph N/A   Clear
6:55 AM 29.1 °F 22.1 °F 25.0 °F 85% 30.31 in 10.0 mi South 6.9 mph - N/A   Clear
7:15 AM 28.0 °F 22.8 °F 24.4 °F 86% 30.30 in 10.0 mi South 4.6 mph - N/A   Clear
7:35 AM 27.5 °F 21.1 °F 24.4 °F 88% 30.30 in 10.0 mi South 5.8 mph - N/A   Clear
7:55 AM 28.2 °F 23.1 °F 24.8 °F 87% 30.31 in 10.0 mi South 4.6 mph - N/A   Clear
8:15 AM 29.1 °F 21.3 °F 25.5 °F 86% 30.31 in 10.0 mi South 8.1 mph - N/A   Clear
8:35 AM 31.8 °F 22.3 °F 26.6 °F 81% 30.30 in 10.0 mi South 12.7 mph 17.3 mph N/A   Clear
8:55 AM 33.1 °F 23.4 °F 27.3 °F 79% 30.30 in 10.0 mi South 13.8 mph 17.3 mph N/A   Clear
9:15 AM 35.1 °F 25.5 °F 27.7 °F 74% 30.30 in 10.0 mi South 15.0 mph 19.6 mph N/A   Clear
9:35 AM 36.9 °F 27.8 °F 27.9 °F 70% 30.28 in 10.0 mi South 15.0 mph 21.9 mph N/A   Clear
9:55 AM 39.7 °F 30.0 °F 28.2 °F 63% 30.28 in 10.0 mi South 20.7 mph 24.2 mph N/A   Clear
10:15 AM 42.6 °F 33.8 °F 28.4 °F 57% 30.27 in 10.0 mi South 20.7 mph - N/A   Clear
10:35 AM 44.6 °F 36.4 °F 28.6 °F 53% 30.28 in 10.0 mi South 20.7 mph 27.6 mph N/A   Clear
10:55 AM 46.6 °F - 28.2 °F 49% 30.27 in 10.0 mi South 20.7 mph 31.1 mph N/A   Clear
11:15 AM 48.4 °F - 27.9 °F 45% 30.26 in 10.0 mi South 19.6 mph 27.6 mph N/A   Clear
11:35 AM 49.8 °F - 27.7 °F 42% 30.25 in 10.0 mi SSW 23.0 mph 28.8 mph N/A   Clear
11:55 AM 50.7 °F - 27.1 °F 40% 30.23 in 10.0 mi South 24.2 mph 28.8 mph N/A   Clear
12:15 PM 51.8 °F - 26.1 °F 37% 30.22 in 10.0 mi South 24.2 mph 29.9 mph N/A   Clear
12:35 PM 52.9 °F - 25.5 °F 35% 30.21 in 10.0 mi South 19.6 mph 27.6 mph N/A   Clear
12:55 PM 54.0 °F - 25.5 °F 33% 30.20 in 10.0 mi South 25.3 mph - N/A   Clear
1:15 PM 54.1 °F - 25.3 °F 33% 30.19 in 10.0 mi South 21.9 mph 31.1 mph N/A   Clear
1:35 PM 54.9 °F - 24.8 °F 31% 30.18 in 10.0 mi South 19.6 mph 31.1 mph N/A   Clear
1:55 PM 55.4 °F - 24.6 °F 30% 30.17 in 10.0 mi South 24.2 mph 29.9 mph N/A   Clear
2:15 PM 55.8 °F - 24.6 °F 30% 30.16 in 10.0 mi South 20.7 mph 29.9 mph N/A   Clear
2:35 PM 56.3 °F - 23.5 °F 28% 30.15 in 10.0 mi South 18.4 mph 28.8 mph N/A   Clear
2:55 PM 56.5 °F - 23.0 °F 27% 30.14 in 10.0 mi South 21.9 mph 28.8 mph N/A   Clear
3:15 PM 56.7 °F - 22.6 °F 27% 30.13 in 10.0 mi South 25.3 mph 28.8 mph N/A   Clear
3:35 PM 56.3 °F - 22.6 °F 27% 30.13 in 10.0 mi South 23.0 mph 27.6 mph N/A   Clear
3:55 PM 55.4 °F - 23.0 °F 29% 30.13 in 10.0 mi South 19.6 mph 26.5 mph N/A   Clear
4:15 PM 54.7 °F - 23.9 °F 30% 30.14 in 10.0 mi South 19.6 mph 27.6 mph N/A   Clear
4:35 PM 54.3 °F - 24.3 °F 31% 30.14 in 10.0 mi South 19.6 mph 23.0 mph N/A   Clear
4:55 PM 52.9 °F - 24.3 °F 33% 30.13 in 10.0 mi South 15.0 mph 23.0 mph N/A   Clear
5:15 PM 51.8 °F - 24.4 °F 34% 30.13 in 10.0 mi South 15.0 mph - N/A   Clear
5:35 PM 50.0 °F - 25.0 °F 38% 30.12 in 10.0 mi South 12.7 mph - N/A   Clear
5:55 PM 48.2 °F - 25.7 °F 42% 30.12 in 10.0 mi SSE 10.4 mph - N/A   Clear
6:15 PM 46.9 °F - 26.2 °F 44% 30.12 in 10.0 mi SSE 10.4 mph - N/A   Clear
6:35 PM 46.6 °F - 26.6 °F 46% 30.11 in 10.0 mi SSE 10.4 mph - N/A   Clear
6:55 PM 46.4 °F 41.1 °F 27.1 °F 47% 30.12 in 10.0 mi SSE 11.5 mph - N/A   Clear
7:15 PM 46.6 °F - 27.5 °F 47% 30.11 in 10.0 mi South 11.5 mph - N/A   Clear
7:55 PM 45.5 °F 39.6 °F 28.4 °F 51% 30.11 in 10.0 mi SSE 12.7 mph - N/A   Clear
8:15 PM 45.0 °F 38.9 °F 29.1 °F 54% 30.11 in 10.0 mi SSE 12.7 mph - N/A   Clear
8:35 PM 45.0 °F 38.9 °F 30.2 °F 56% 30.10 in 10.0 mi SSE 12.7 mph - N/A   Clear
8:55 PM 45.5 °F 39.2 °F 31.1 °F 57% 30.10 in 10.0 mi South 13.8 mph 18.4 mph N/A   Clear
9:15 PM 46.4 °F 40.4 °F 32.0 °F 57% 30.10 in 10.0 mi South 13.8 mph 19.6 mph N/A   Clear
9:35 PM 45.7 °F 39.5 °F 32.0 °F 59% 30.10 in 10.0 mi South 13.8 mph 19.6 mph N/A   Clear
9:55 PM 45.1 °F 38.8 °F 32.0 °F 60% 30.10 in 10.0 mi South 13.8 mph - N/A   Clear
10:15 PM 44.6 °F 38.4 °F 32.0 °F 61% 30.10 in 10.0 mi South 12.7 mph - N/A   Clear
10:35 PM 44.2 °F 38.4 °F 32.2 °F 63% 30.10 in 10.0 mi South 11.5 mph - N/A   Clear
10:55 PM 43.5 °F 37.9 °F 32.2 °F 64% 30.10 in 10.0 mi South 10.4 mph - N/A   Clear
11:15 PM 43.2 °F 37.0 °F 32.4 °F 66% 30.10 in 10.0 mi South 11.5 mph - N/A   Clear
11:35 PM 43.0 °F 37.2 °F 32.5 °F 67% 30.10 in 10.0 mi South 10.4 mph - N/A   Clear
11:55 PM 42.3 °F 36.3 °F 32.5 °F 68% 30.09 in 10.0 mi South 10.4 mph - N/A   Clear